Regional Weather Roundup
Issued by NWS

Home | Current Version | Previous Version | Graphics & Text | Print | Product List | Glossary On
Versions: 1 2 3 4 5 6 7 8 9 10 11 12 13 14 15 16 17 18 19 20 21 22 23 24 25 26 27 28 29 30 31 32 33 34 35 36 37 38 39 40 41 42 43 44 45 46 47 48 49 50
000
ASUS45 KABQ 282010
RWRNM
WEATHER ROUNDUP FOR NEW MEXICO
NATIONAL WEATHER SERVICE ALBUQUERQUE NM
200 PM MDT MON JUL 28 2014

NOTE: "FAIR" MEANS FEW OR NO CLOUDS BELOW 12,000 FEET AGL WITH NO
       SIGNIFICANT WEATHER OR OBSTRUCTIONS TO VISION.

      THIS PRODUCT IS RELEASED AS TWO VERSIONS.  ONE VERSION NEAR
      THE TOP OF THE HOUR CONTAINING PRELIMINARY DATA FROM ALBUQUERQUE
      AND OTHER STATIONS.  A FINAL VERSION WITH ADDITIONAL DATA IS
      ISSUED ABOUT 10 MINUTES AFTER THE HOUR.

NMZ501-503-504-510>518-282100-
NORTHWEST PLATEAU/NORTHCENTRAL MOUNTAINS

CITY           SKY/WX    TMP DP  RH WIND       PRES   REMARKS
FARMINGTON     SUNNY     85  53  33 S8        30.31F
LOS ALAMOS     MOSUNNY   74  51  44 S14       30.46F
SANTA FE       PTSUNNY   77  55  46 SW9G20    30.40F
TAOS           PTSUNNY   73  54  49 W8        30.46F
ANGEL FIRE     FAIR      65  53  66 S16G23    30.57R

$$
NMZ402-403-502-505>509-282100-
WESTCENTRAL MOUNTAINS/SOUTHWEST MOUNTAINS

CITY           SKY/WX    TMP DP  RH WIND       PRES   REMARKS
GALLUP         TSTM      66  56  70 W3        30.40F
SILVER CITY    PTSUNNY   81  52  36 SE8G16    30.35F

$$
NMZ407-409-411-412-282100-
SOUTHERN DESERTS

CITY           SKY/WX    TMP DP  RH WIND       PRES   REMARKS
LORDSBURG      FAIR      86  54  32 E8        30.25F
DEMING         MOSUNNY   86  56  35 E8        30.25F
LAS CRUCES     MOSUNNY   88  53  29 E13G18    30.28F
ALAMOGORDO     CLOUDY    82  57  42 N7        30.27F
T OR C         PTSUNNY   82  56  40 E9        30.30F

$$
NMZ519>523-282100-
CENTRAL VALLEYS/CENTRAL HIGHLANDS

CITY           SKY/WX    TMP DP  RH WIND       PRES   REMARKS
ALBUQUERQUE    PTSUNNY   82  53  36 VRB5      30.35F
DOUBLE EAGLE   PTSUNNY   79  54  41 VRB7      30.39F
MORIARTY ARPT  FAIR      76  49  37 S12       30.44F
CLINES CORNERS PTSUNNY   76  50  40 SE9       30.48F
BELEN          FAIR      83  51  33 SE8       30.34F
SOCORRO        PTSUNNY   82  53  35 SE10      30.31F

$$
NMZ524>526-539-540-282100-
SOUTHCENTRAL MOUNTAINS

CITY           SKY/WX    TMP DP  RH WIND       PRES   REMARKS
RUIDOSO        PTSUNNY   70  57  64 E8        30.49F

$$
NMZ527>531-282100-
NORTHEAST HIGHLANDS/NORTHEAST PLAINS

CITY           SKY/WX    TMP DP  RH WIND       PRES   REMARKS
LAS VEGAS      PTSUNNY   72  57  59 S15       30.48S
RATON          NOT AVBL
CLAYTON        CLOUDY    67  59  75 S13       30.40F

$$
NMZ532>537-282100-
EASTCENTRAL PLAINS

CITY           SKY/WX    TMP DP  RH WIND       PRES   REMARKS
TUCUMCARI      PTSUNNY   84  61  45 E13       30.31F
CANNON AFB     NOT AVBL
CLOVIS AIRPORT NOT AVBL

$$
NMZ028-029-538-282100-
SOUTHEAST PLAINS

CITY           SKY/WX    TMP DP  RH WIND       PRES   REMARKS
ROSWELL        PTSUNNY   89  57  33 VRB6      30.25F
ARTESIA        PTSUNNY   88  55  33 NE7       30.24F
CARLSBAD       MOSUNNY   94  55  26 E9G18     30.20F
HOBBS          MOSUNNY   88  55  33 NE14G21   30.26F


$$


USA.gov is the U.S. government's official web portal to all federal, state and local government web resources and services.